Torna al catalogo

SL-8 R/B

AttivoPO
NORAD 12088·ROCKET BODY·🇷🇺 Russia

Lanciato Dec 5, 1980 da Plesetsk Cosmodrome

Loading…

Prossimi Passaggi (prossime 24 ore)

TLE

AggiornatoSource: Space-Track

Epoca: Sep 14, 2026, 05:38 UTC

1 12088U 80097B   26257.23526199  .00000063  00000-0  48098-4 0  9994
2 12088  82.9472 352.4752 0048181 337.1739  22.7276 13.77346963299652

Traccia SL-8 R/B in tempo reale con AllMySat

Download on the App Store